Regional Weather Roundup
Issued by NWS

Home | Current Version | Previous Version | Graphics & Text | Print | Product List | Glossary On
Versions: 1 2 3 4 5 6 7 8 9 10 11 12 13 14 15 16 17 18 19 20 21 22 23 24 25 26 27 28 29 30 31 32 33 34 35 36 37 38 39 40 41 42 43 44 45 46 47 48 49 50
000
ASUS43 KDMX 262207
RWRIA

WEATHER ROUNDUP FOR IOWA
NATIONAL WEATHER SERVICE DES MOINES IA
400 PM CST MON JAN 26 2015

NOTE: "FAIR" INDICATES FEW OR NO CLOUDS BELOW 12,000 FEET WITH NO
SIGNIFICANT WEATHER AND/OR OBSTRUCTIONS TO VISIBILITY.

* - THESE STATIONS ARE NOT NWS STATIONS...THUS NOT UNDER NWS
QUALITY CONTROL.  THEY ALSO DO NOT REPORT WEATHER SUCH
AS PRECIPITATION OR FOG.

IAZ001>003-012>014-020>022-031>034-043>046-262300-
   NORTHWEST IOWA

CITY           SKY/WX    TMP DP  RH WIND       PRES   REMARKS
CARROLL *      SUNNY     50  39  66 NW20G26   29.89R
CHEROKEE *     SUNNY     48  39  71 NW13G18   29.90R
DENISON *      SUNNY     52  37  58 NW13G23   29.90R
LE MARS *      SUNNY     50  41  71 NW15G23   29.94R
ORANGE CITY *  SUNNY     48  39  71 NW14G21   29.92R
SHELDON *      SUNNY     46  39  76 NW20G28   29.88R
SIOUX CITY     SUNNY     55  38  52 NW14G25   29.94R
SPENCER        SUNNY     47  37  68 NW16G25   29.87R
STORM LAKE *   SUNNY     46  39  76 NW18G25   29.89R
$$

IAZ055>058-069>071-079>083-090>094-262300-
   SOUTHWEST IOWA

CITY           SKY/WX    TMP DP  RH WIND       PRES   REMARKS
ATLANTIC *     SUNNY     54  37  54 NW18      29.91R
AUDUBON *      SUNNY     52  37  58 NW15G25   29.91R
CLARINDA *     SUNNY     57  36  44 NW15G24   29.94R
COUNCIL BLFS * SUNNY     55  37  50 NW20      29.93R
CRESTON *      SUNNY     52  37  58 NW22G29   29.90R
HARLAN  *      SUNNY     52  39  62 NW18G26   29.95R
LAMONI         SUNNY     53  37  54 NW18      29.87R
RED OAK *      SUNNY     55  36  47 NW15G22   29.93R
SHENANDOAH *   SUNNY     57  34  41 N16G24    29.94R
$$

IAZ047>049-059>061-072>074-084-262300-
   CENTRAL IOWA

CITY           SKY/WX    TMP DP  RH WIND       PRES   REMARKS
AMES           SUNNY     49  37  63 NW17G28   29.84R
ANKENY *       SUNNY     52  37  58 NW17      29.85R
CHARITON *     SUNNY     52  37  58 NW18G28   29.85S
DES MOINES     MOSUNNY   53  36  52 NW18G24   29.85R
GRINNELL*      SUNNY     46  39  76 NW13      29.82R
KNOXVILLE *    SUNNY     50  36  57 NW13G23   29.83R
MARSHALLTOWN   PTSUNNY   45  38  76 NW21      29.82R
PELLA *        SUNNY     52  39  62 NW16      29.85R
PERRY *          N/A     52  39  62 NW17G23   29.86S
$$

IAZ004>006-015-016-023>025-035-036-262300-
   NORTH CENTRAL IOWA

CITY           SKY/WX    TMP DP  RH WIND       PRES   REMARKS
ALGONA *       MOSUNNY   46  39  76 NW15G24   29.84R
CLARION *      MOSUNNY   43  41  93 NW13      29.83S
ESTHERVILLE    MOSUNNY   44  37  76 NW17      29.84R
FORT DODGE *   SUNNY     46  37  71 NW15G22   29.86R
MASON CITY     MOSUNNY   44  36  73 NW17      29.81R
FOREST CITY *  MOSUNNY   43  34  70 NW16      29.81R
IOWA FALLS *   CLOUDY    45  37  76 NW16G23   29.84R
$$

IAZ007>011-017>019-026>030-037>042-050>054-066-262300-
   NORTHEAST IOWA

CITY           SKY/WX    TMP DP  RH WIND       PRES   REMARKS
CEDAR RAPIDS   MOSUNNY   38  35  89 SW5       29.79R WCI  34
CHARLES CITY * CLOUDY    41  39  93 W13       29.79R
CLINTON *      CLOUDY    27  25  93 SE7       29.85R WCI  19
DECORAH *      CLOUDY    37  34  87 NW7       29.75R WCI  32
DUBUQUE        CLOUDY    25  24  96 S7        29.79R FOG     WCI  17
MONTICELLO *   CLOUDY    34  32  93 SW5       29.79R WCI  30
OELWEIN *      CLOUDY    43  37  81 NW14      29.78R
WATERLOO       CLOUDY    44  36  73 NW13      29.79R
$$

IAZ064-065-067-068-078-262300-
   EAST CENTRAL IOWA

CITY           SKY/WX    TMP DP  RH WIND       PRES   REMARKS
DAVENPORT      CLOUDY    31  26  82 SW6       29.82R HAZE    WCI  25
IOWA CITY      CLOUDY    35  32  88 SE5       29.83R WCI  31
MT. PLEASANT * CLOUDY    37  34  87 S5        29.83R WCI  34
MUSCATINE *    CLOUDY    36  32  87 S3        29.84R
QUAD CITIES    CLOUDY    31  27  85 SW6       29.82R WCI  25
$$

IAZ062-063-075>077-085>089-095>099-262300-
   SOUTHEAST IOWA

CITY           SKY/WX    TMP DP  RH WIND       PRES   REMARKS
BURLINGTON     CLOUDY    35  33  92 S6        29.83R WCI  30
FAIRFIELD *    MOSUNNY   46  37  71 NW13      29.82R
FORT MADISON * CLOUDY    39  36  87 S5        29.84R
KEOKUK *       PTSUNNY   45  37  76 W3        29.82R
OSKALOOSA *      N/A     48  39  71 NW20G26   29.83R
CENTERVILLE *  SUNNY     50  37  62 NW12      29.86R
OTTUMWA        SUNNY     49  37  63 NW15G25   29.82R
WASHINGTON *   PTSUNNY   43  43 100 NW9       29.82R
$$

ABBREVIATIONS USED IN REMARKS
   TC - TEMPERATURES IN CELSIUS
  WCI - WIND CHILL INDEX
   HX - HEAT INDEX
  VSB - VISIBILITY
$$



USA.gov is the U.S. government's official web portal to all federal, state and local government web resources and services.